Regional Weather Roundup
Issued by NWS Little Rock, AR

Home | Current Version | Previous Version | Graphics & Text | Print | Product List | Glossary On
Versions: 1 2 3 4 5 6 7 8 9 10 11 12 13 14 15 16 17 18 19 20 21 22 23 24 25 26 27 28 29 30 31 32 33 34 35 36 37 38 39 40 41 42 43 44 45 46 47 48 49 50
196
ASUS44 KLZK 082205
RWRLZK

WEATHER ROUNDUP FOR ARKANSAS
NATIONAL WEATHER SERVICE LITTLE ROCK AR
400 PM CST THU DEC 08 2016

NOTE: "FAIR" INDICATES FEW OR NO CLOUDS BELOW 12,000 FEET WITH NO
SIGNIFICANT WEATHER AND/OR OBSTRUCTIONS TO VISIBILITY.

ARZ001-003-010-029-082300-
NORTHWEST ARKANSAS

CITY           SKY/WX    TMP DP  RH WIND       PRES   REMARKS
FAYETTEVILLE   CLEAR     31  10  41 N8        30.58R WCI  23
FORT SMITH     SUNNY     37   6  27 NW13      30.61R
HARRISON       CLEAR     31   9  39 NW13      30.54R WCI  21
BENTONVILLE    CLEAR     30   7  37 N7        30.59R WCI  23
ROGERS         CLEAR     30  10  43 N9        30.58R WCI  22
SILOAM SPGS    CLEAR     30   9  40 NW12      30.59S WCI  21
HIGHFILL       CLEAR     31  10  41 NW13      30.58R WCI  21
SPRINGDALE     CLEAR     32   7  34 NW13G18   30.58S WCI  22
$$

ARZ004-005-016-082300-
NORTH CENTRAL ARKANSAS

CITY           SKY/WX    TMP DP  RH WIND       PRES   REMARKS
BATESVILLE     CLEAR     37  10  32 W7        30.56R
FLIPPIN        CLEAR     34   9  35 NW12G18   30.53S WCI  25
MTN HOME       CLEAR     32   9  38 VRB6      30.54R WCI  26
$$

ARZ040-041-082300-
WEST CENTRAL ARKANSAS

CITY           SKY/WX    TMP DP  RH WIND       PRES   REMARKS
MENA           MOSUNNY   37  14  38 NW3       30.55S
$$

ARZ009-017-025-026-028-082300-
NORTHEAST ARKANSAS

CITY           SKY/WX    TMP DP  RH WIND       PRES   REMARKS
CORNING        FAIR      37  14  38 NW12G20   30.53R
JONESBORO      PTCLDY    36  13  38 NW10      30.53R
NEWPORT        CLEAR     37  13  37 N8        30.55R
WALNUT RIDGE   CLEAR     37  12  35 NW13      30.53R
BLYTHEVILLE    PTCLDY    37  20  50 NW10      30.53R
NW BLYTHEVILLE MOCLDY    36  18  48 NW10G18   30.52R
$$

ARZ022-023-033-042-044-082300-
CENTRAL ARKANSAS

CITY           SKY/WX    TMP DP  RH WIND       PRES   REMARKS
LITTLE ROCK    CLOUDY    38  11  32 N13       30.56R
JACKSONVILLE   PTCLDY    38  11  33 N7        30.55R
SEARCY         CLOUDY    37  12  35 MISG      30.57R
HOT SPRINGS    CLOUDY    39  14  36 N9        30.56R
RUSSELLVILLE   CLEAR     39  13  34 W9        30.55S
CLINTON        FAIR      37   9  30 NW7       30.56R
$$

ARZ036-082300-
EAST ARKANSAS

CITY           SKY/WX    TMP DP  RH WIND       PRES   REMARKS
WEST MEMPHIS   CLOUDY    35  18  49 NW8       30.53R WCI  29
$$

ARZ050-053-066-070-073-082300-
SOUTHWEST ARKANSAS

CITY           SKY/WX    TMP DP  RH WIND       PRES   REMARKS
ARKADELPHIA    FAIR      40  21  46 NW9       30.57R
CAMDEN         MIX PCPN  41  19  42 N5        30.56R
TEXARKANA      CLOUDY    40  18  41 N7        30.56R
EL DORADO      CLOUDY    40  26  57 N6        30.54R
DE QUEEN       PTSUNNY   39  14  36 NW8       30.56S
$$

ARZ056-057-069-082300-
SOUTHEAST ARKANSAS

CITY           SKY/WX    TMP DP  RH WIND       PRES   REMARKS
PINE BLUFF     CLOUDY    40  17  39 NW8       30.55R
STUTTGART      CLOUDY    39  16  38 N12       30.55R
MONTICELLO     CLOUDY    39  21  48 VRB6      30.54R

$$






USA.gov is the U.S. government's official web portal to all federal, state and local government web resources and services.